This is the latest recevied weather packets stored in our database for station/object KA1ROH. If no packets are shown the sender has not sent any weather packets the latest 10 day(s).
| Time | Temp. | Humidity | Pressure | Rain* | Wind** | Luminosity | Snow |
|---|---|---|---|---|---|---|---|
| 1777640470 | 6.11° C | 69% | 1011.9 hPa | 0 mm | - | - | - |
| 1777636813 | 6.11° C | 72% | 1011.9 hPa | 0 mm | - | - | - |
| 1777635611 | 6.11° C | 76% | 1011.9 hPa | 0 mm | - | - | - |
| 1777634410 | 5.56° C | 76% | 1011.5 hPa | 0 mm | - | - | - |
| 1777631976 | 5.56° C | 78% | 1011.2 hPa | 0 mm | - | - | - |
| 1777623419 | 6.67° C | 78% | 1010.2 hPa | 0 mm | - | - | - |
| 1777622787 | 6.67° C | 78% | 1010.2 hPa | 0 mm | - | - | - |
| 1777621586 | 6.67° C | 78% | 1010.2 hPa | 0 mm | - | - | - |
| 1777620986 | 6.67° C | 76% | 1010.2 hPa | 0 mm | - | - | - |
| 1777620385 | 6.67° C | 77% | 1009.8 hPa | 0 mm | - | - | - |
| 1777619753 | 6.67° C | 77% | 1009.8 hPa | 0 mm | - | - | - |
| 1777611291 | 7.78° C | 79% | 1009.8 hPa | 0 mm | - | - | - |
| 1777600415 | 8.33° C | 79% | 1009.8 hPa | 0 mm | - | - | - |
| 1777599152 | 8.33° C | 78% | 1009.8 hPa | 0 mm | - | - | - |
| 1777597319 | 8.33° C | 79% | 1009.5 hPa | 0 mm | - | - | - |
| 1777590524 | 8.89° C | 80% | 1008.1 hPa | 0 mm | - | - | - |
| 1777588090 | 8.89° C | 82% | 1007.5 hPa | 0 mm | - | - | - |
| 1777584382 | 10° C | 81% | 1006.8 hPa | 0 mm | - | - | - |
| 1777580778 | 11.11° C | 80% | 1006.1 hPa | 0 mm | - | - | - |
| 1777578945 | 11.11° C | 81% | 1005.4 hPa | 0 mm | - | - | - |
| 1777572877 | 11.67° C | 84% | 1005.4 hPa | 0.25 mm | - | - | - |
| 1777572277 | 11.67° C | 83% | 1005.1 hPa | 0.25 mm | - | - | - |
| 1777567440 | 11.67° C | 82% | 1005.1 hPa | 0.25 mm | - | - | - |
| 1777566839 | 11.67° C | 80% | 1005.1 hPa | 0 mm | - | - | - |
| 1777565638 | 12.22° C | 81% | 1005.1 hPa | 0 mm | - | - | - |
* Rain latest hour (hover to see other rain measurements)
** Current wind speed in m/s (hover to see current wind gust speed)